Year,Month,Day,Hour,Minute,Value (Times are PST for temperature in C)
2018,05,31,09,07,12.70
2018,05,31,09,08,12.80
2018,05,31,09,09,12.80
2018,05,31,09,10,12.80
2018,05,31,09,11,12.80
2018,05,31,09,12,12.70
2018,05,31,09,13,12.70
2018,05,31,09,14,12.70
2018,05,31,09,15,12.70
2018,05,31,09,16,12.70
2018,05,31,09,17,12.70
2018,05,31,09,18,12.70
2018,05,31,09,19,12.80
2018,05,31,09,20,12.80
2018,05,31,09,21,12.80
2018,05,31,09,22,12.80
2018,05,31,09,23,12.90
2018,05,31,09,24,12.90
2018,05,31,09,25,12.90
2018,05,31,09,26,12.90
2018,05,31,09,27,13.00
2018,05,31,09,28,13.00
2018,05,31,09,29,13.10
2018,05,31,09,30,13.10
2018,05,31,09,31,13.10
2018,05,31,09,32,13.10
2018,05,31,09,33,13.20
2018,05,31,09,34,13.20
2018,05,31,09,35,13.20
2018,05,31,09,36,13.20
2018,05,31,09,37,13.20
2018,05,31,09,38,13.30
2018,05,31,09,39,13.30
2018,05,31,09,40,13.30
2018,05,31,09,41,13.30
2018,05,31,09,42,13.40
2018,05,31,09,43,13.40
2018,05,31,09,44,13.40
2018,05,31,09,45,13.50
2018,05,31,09,46,13.50
2018,05,31,09,47,13.40
2018,05,31,09,48,13.40
2018,05,31,09,49,13.40
2018,05,31,09,50,13.30
2018,05,31,09,51,13.30
2018,05,31,09,52,13.40
2018,05,31,09,53,13.40
2018,05,31,09,54,13.30
2018,05,31,09,55,13.30
2018,05,31,09,56,13.40
2018,05,31,09,57,13.40
2018,05,31,09,58,13.40
2018,05,31,09,59,13.50
2018,05,31,10,00,13.60
2018,05,31,10,01,13.70
2018,05,31,10,02,13.80
2018,05,31,10,03,13.80
2018,05,31,10,04,13.90
2018,05,31,10,05,13.90
2018,05,31,10,06,13.90
2018,05,31,10,07,13.90
2018,05,31,10,08,14.00
2018,05,31,10,09,14.10
2018,05,31,10,10,14.20
2018,05,31,10,11,14.30
2018,05,31,10,12,14.30
2018,05,31,10,13,14.50
2018,05,31,10,14,14.50
2018,05,31,10,15,14.30
2018,05,31,10,16,14.20
2018,05,31,10,17,14.20
2018,05,31,10,18,14.10
2018,05,31,10,19,14.00
2018,05,31,10,20,14.00
2018,05,31,10,21,14.00
2018,05,31,10,22,14.10
2018,05,31,10,23,14.20
2018,05,31,10,24,14.20
2018,05,31,10,25,14.20
2018,05,31,10,26,14.30
2018,05,31,10,27,14.30
2018,05,31,10,28,14.30
2018,05,31,10,29,14.30
2018,05,31,10,30,14.30
2018,05,31,10,31,14.30
2018,05,31,10,32,14.30
2018,05,31,10,33,14.40
2018,05,31,10,34,14.40
2018,05,31,10,35,14.40
2018,05,31,10,36,14.40
2018,05,31,10,37,14.40
2018,05,31,10,38,14.40
2018,05,31,10,39,14.40
2018,05,31,10,40,14.30
2018,05,31,10,41,14.30
2018,05,31,10,42,14.40
2018,05,31,10,43,14.50
2018,05,31,10,44,14.60
2018,05,31,10,45,14.70
2018,05,31,10,46,14.80
2018,05,31,10,47,14.90
2018,05,31,10,48,15.00
2018,05,31,10,49,14.90
2018,05,31,10,50,14.90
2018,05,31,10,51,14.80
2018,05,31,10,52,14.80
2018,05,31,10,53,14.80
2018,05,31,10,54,14.80
2018,05,31,10,55,14.90
2018,05,31,10,56,14.90
2018,05,31,10,57,14.90
2018,05,31,10,58,14.90
2018,05,31,10,59,14.80
2018,05,31,11,00,14.70
2018,05,31,11,01,14.70
2018,05,31,11,02,14.70
2018,05,31,11,03,14.70
2018,05,31,11,04,14.60
2018,05,31,11,05,14.60
2018,05,31,11,06,14.60
2018,05,31,11,07,14.60
2018,05,31,11,08,14.70
2018,05,31,11,09,14.70
2018,05,31,11,10,14.80
2018,05,31,11,11,15.00
2018,05,31,11,12,15.10
2018,05,31,11,13,15.20
2018,05,31,11,14,15.20
2018,05,31,11,15,15.20
2018,05,31,11,16,15.20
2018,05,31,11,17,15.00
2018,05,31,11,18,14.90
2018,05,31,11,19,14.80
2018,05,31,11,20,14.70
2018,05,31,11,21,14.70
2018,05,31,11,22,14.70
2018,05,31,11,23,14.70
2018,05,31,11,24,14.60
2018,05,31,11,25,14.60
2018,05,31,11,26,14.60
2018,05,31,11,27,14.60
2018,05,31,11,28,14.60
2018,05,31,11,29,14.70
2018,05,31,11,30,14.80
2018,05,31,11,31,14.90
2018,05,31,11,32,14.90
2018,05,31,11,33,15.00
2018,05,31,11,34,15.20
2018,05,31,11,35,15.30
2018,05,31,11,36,15.40
2018,05,31,11,37,15.40
2018,05,31,11,38,15.30
2018,05,31,11,39,15.20
2018,05,31,11,40,15.10
2018,05,31,11,41,15.00
2018,05,31,11,42,14.80
2018,05,31,11,43,14.80
2018,05,31,11,44,14.80
2018,05,31,11,45,14.80
2018,05,31,11,46,14.80
2018,05,31,11,47,14.90
2018,05,31,11,48,14.90
2018,05,31,11,49,14.90
2018,05,31,11,50,15.00
2018,05,31,11,51,15.00
2018,05,31,11,52,15.10
2018,05,31,11,53,15.20
2018,05,31,11,54,15.20
2018,05,31,11,55,15.20
2018,05,31,11,56,15.20
2018,05,31,11,57,15.10
2018,05,31,11,58,15.20
2018,05,31,11,59,15.20
2018,05,31,12,00,15.20
2018,05,31,12,01,15.30
2018,05,31,12,02,15.30
2018,05,31,12,03,15.20
2018,05,31,12,04,15.20
2018,05,31,12,05,15.10
2018,05,31,12,06,15.00
2018,05,31,12,07,15.00
2018,05,31,12,08,15.00
2018,05,31,12,09,15.10
2018,05,31,12,10,15.10
2018,05,31,12,11,15.20
2018,05,31,12,12,15.20
2018,05,31,12,13,15.30
2018,05,31,12,14,15.30
2018,05,31,12,15,15.30
2018,05,31,12,16,15.30
2018,05,31,12,17,15.20
2018,05,31,12,18,15.20
2018,05,31,12,19,15.20
2018,05,31,12,20,15.20
2018,05,31,12,21,15.30
2018,05,31,12,22,15.30
2018,05,31,12,23,15.30
2018,05,31,12,24,15.40
2018,05,31,12,25,15.40
2018,05,31,12,26,15.40
2018,05,31,12,27,15.40
2018,05,31,12,28,15.40
2018,05,31,12,29,15.50
2018,05,31,12,30,15.60
2018,05,31,12,31,15.70
2018,05,31,12,32,15.70
2018,05,31,12,33,15.70
2018,05,31,12,34,15.60
2018,05,31,12,35,15.50
2018,05,31,12,36,15.40
2018,05,31,12,37,15.40
2018,05,31,12,38,15.40
2018,05,31,12,39,15.40
2018,05,31,12,40,15.40
2018,05,31,12,41,15.40
2018,05,31,12,42,15.30
2018,05,31,12,43,15.20
2018,05,31,12,44,15.10
2018,05,31,12,45,15.10
2018,05,31,12,46,15.10
2018,05,31,12,47,15.10
2018,05,31,12,48,15.10
2018,05,31,12,49,15.30
2018,05,31,12,50,15.50
2018,05,31,12,51,15.70
2018,05,31,12,52,15.80
2018,05,31,12,53,15.90
2018,05,31,12,54,15.80
2018,05,31,12,55,15.80
2018,05,31,12,56,15.90
2018,05,31,12,57,15.90
2018,05,31,12,58,16.00
2018,05,31,12,59,16.00
2018,05,31,13,00,15.90
2018,05,31,13,01,15.60
2018,05,31,13,02,15.40
2018,05,31,13,03,15.20
2018,05,31,13,04,15.10
2018,05,31,13,05,15.10
2018,05,31,13,06,15.00
2018,05,31,13,07,15.00
2018,05,31,13,08,15.10
2018,05,31,13,09,15.10
2018,05,31,13,10,15.20
2018,05,31,13,11,15.30
2018,05,31,13,12,15.30
2018,05,31,13,13,15.30
2018,05,31,13,14,15.30
2018,05,31,13,15,15.40
2018,05,31,13,16,15.40
2018,05,31,13,17,15.50
2018,05,31,13,18,15.40
2018,05,31,13,19,15.30
2018,05,31,13,20,15.30
2018,05,31,13,21,15.20
2018,05,31,13,22,15.20
2018,05,31,13,23,15.20
2018,05,31,13,24,15.20
2018,05,31,13,25,15.30
2018,05,31,13,26,15.30
2018,05,31,13,27,15.30
2018,05,31,13,28,15.30
2018,05,31,13,29,15.30
2018,05,31,13,30,15.30
2018,05,31,13,31,15.30
2018,05,31,13,32,15.20
2018,05,31,13,33,15.20
2018,05,31,13,34,15.10
2018,05,31,13,35,15.10
2018,05,31,13,36,15.20
2018,05,31,13,37,15.20
2018,05,31,13,38,15.30
2018,05,31,13,39,15.40
2018,05,31,13,40,15.40
2018,05,31,13,41,15.20
2018,05,31,13,42,15.10
2018,05,31,13,43,15.00
2018,05,31,13,44,15.00
2018,05,31,13,45,15.10
2018,05,31,13,46,15.10
2018,05,31,13,47,15.10
2018,05,31,13,48,15.20
2018,05,31,13,49,15.20
2018,05,31,13,50,15.30
2018,05,31,13,51,15.30
2018,05,31,13,52,15.40
2018,05,31,13,53,15.40
2018,05,31,13,54,15.40
2018,05,31,13,55,15.50
2018,05,31,13,56,15.50
2018,05,31,13,57,15.50
2018,05,31,13,58,15.40
2018,05,31,13,59,15.40
2018,05,31,14,00,15.50
2018,05,31,14,01,15.50
2018,05,31,14,02,15.40
2018,05,31,14,03,15.20
2018,05,31,14,04,15.10
2018,05,31,14,05,15.20
2018,05,31,14,06,15.10
2018,05,31,14,07,15.10
2018,05,31,14,08,15.20
2018,05,31,14,09,15.30
2018,05,31,14,10,15.30
2018,05,31,14,11,15.30
2018,05,31,14,12,15.20
2018,05,31,14,13,15.20
2018,05,31,14,14,15.20
2018,05,31,14,15,15.20
2018,05,31,14,16,15.10
2018,05,31,14,17,15.10
2018,05,31,14,18,15.20
2018,05,31,14,19,15.40
2018,05,31,14,20,15.40
2018,05,31,14,21,15.40
2018,05,31,14,22,15.40
2018,05,31,14,23,15.50
2018,05,31,14,24,15.60
2018,05,31,14,25,15.60
2018,05,31,14,26,15.80
2018,05,31,14,27,15.90
2018,05,31,14,28,15.90
2018,05,31,14,29,15.90
2018,05,31,14,30,15.70
2018,05,31,14,31,15.50
2018,05,31,14,32,15.40
2018,05,31,14,33,15.30
2018,05,31,14,34,15.40
2018,05,31,14,35,15.40
2018,05,31,14,36,15.40
2018,05,31,14,37,15.40
2018,05,31,14,38,15.30
2018,05,31,14,39,15.30
2018,05,31,14,40,15.20
2018,05,31,14,41,15.20
2018,05,31,14,42,15.20
2018,05,31,14,43,15.30
2018,05,31,14,44,15.30
2018,05,31,14,45,15.30
2018,05,31,14,46,15.30
2018,05,31,14,47,15.20
2018,05,31,14,48,15.20
2018,05,31,14,49,15.20
2018,05,31,14,50,15.20
2018,05,31,14,51,15.20
2018,05,31,14,52,15.20
2018,05,31,14,53,15.30
2018,05,31,14,54,15.30
2018,05,31,14,55,15.30
2018,05,31,14,56,15.40
2018,05,31,14,57,15.40
2018,05,31,14,58,15.40
2018,05,31,14,59,15.30
2018,05,31,15,00,15.30
2018,05,31,15,01,15.30
2018,05,31,15,02,15.40
2018,05,31,15,03,15.40
2018,05,31,15,04,15.40
2018,05,31,15,05,15.40
2018,05,31,15,06,15.40
2018,05,31,15,07,15.40
2018,05,31,15,08,15.40
2018,05,31,15,09,15.40
2018,05,31,15,10,15.40
2018,05,31,15,11,15.50
2018,05,31,15,12,15.50
2018,05,31,15,13,15.50
2018,05,31,15,14,15.60
2018,05,31,15,15,15.60
2018,05,31,15,16,15.70
2018,05,31,15,17,15.80
2018,05,31,15,18,15.80
2018,05,31,15,19,15.90
2018,05,31,15,20,15.90
2018,05,31,15,21,15.90
2018,05,31,15,22,16.00
2018,05,31,15,23,16.10
2018,05,31,15,24,16.30
2018,05,31,15,25,16.40
2018,05,31,15,26,16.50
2018,05,31,15,27,16.50
2018,05,31,15,28,16.50
2018,05,31,15,29,16.60
2018,05,31,15,30,16.70
2018,05,31,15,31,16.90
2018,05,31,15,32,17.00
2018,05,31,15,33,17.10
2018,05,31,15,34,17.20
2018,05,31,15,35,17.30
2018,05,31,15,36,17.40
2018,05,31,15,37,17.50
2018,05,31,15,38,17.60
2018,05,31,15,39,17.60
2018,05,31,15,40,17.50
2018,05,31,15,41,17.50
2018,05,31,15,42,17.30
2018,05,31,15,43,17.30
2018,05,31,15,44,17.20
2018,05,31,15,45,17.10
2018,05,31,15,46,17.20
2018,05,31,15,47,17.20
2018,05,31,15,48,17.40
2018,05,31,15,49,17.50
2018,05,31,15,50,17.70
2018,05,31,15,51,17.80
2018,05,31,15,52,17.80
2018,05,31,15,53,17.80
2018,05,31,15,54,17.80
2018,05,31,15,55,17.80
2018,05,31,15,56,17.70
2018,05,31,15,57,17.60
2018,05,31,15,58,17.60
2018,05,31,15,59,17.60
2018,05,31,16,00,17.70
2018,05,31,16,01,17.70
2018,05,31,16,02,17.80
2018,05,31,16,03,17.90
2018,05,31,16,04,17.90
2018,05,31,16,05,17.90
2018,05,31,16,06,17.90
2018,05,31,16,07,17.80
2018,05,31,16,08,17.80
2018,05,31,16,09,17.70
2018,05,31,16,10,17.70
2018,05,31,16,11,17.60
2018,05,31,16,12,17.50
2018,05,31,16,13,17.50
2018,05,31,16,14,17.40
2018,05,31,16,15,17.40
2018,05,31,16,16,17.30
2018,05,31,16,17,17.10
2018,05,31,16,18,17.00
2018,05,31,16,19,16.80
2018,05,31,16,20,16.80
2018,05,31,16,21,16.70
2018,05,31,16,22,16.80
2018,05,31,16,23,16.80
2018,05,31,16,24,16.90
2018,05,31,16,25,16.90
2018,05,31,16,26,16.90
2018,05,31,16,27,16.90
2018,05,31,16,28,16.80
2018,05,31,16,29,16.70
2018,05,31,16,30,16.60
2018,05,31,16,31,16.60
2018,05,31,16,32,16.50
2018,05,31,16,33,16.50
2018,05,31,16,34,16.50
2018,05,31,16,35,16.50
2018,05,31,16,36,16.50
2018,05,31,16,37,16.50
2018,05,31,16,38,16.60
2018,05,31,16,39,16.60
2018,05,31,16,40,16.60
2018,05,31,16,41,16.60
2018,05,31,16,42,16.60
2018,05,31,16,43,16.60
2018,05,31,16,44,16.60
2018,05,31,16,45,16.50
2018,05,31,16,46,16.40
2018,05,31,16,47,16.40
2018,05,31,16,48,16.40
2018,05,31,16,49,16.40
2018,05,31,16,50,16.40
2018,05,31,16,51,16.30
2018,05,31,16,52,16.30
2018,05,31,16,53,16.30
2018,05,31,16,54,16.30
2018,05,31,16,55,16.40
2018,05,31,16,56,16.40
2018,05,31,16,57,16.50
2018,05,31,16,58,16.70
2018,05,31,16,59,16.80
2018,05,31,17,00,16.90
2018,05,31,17,01,17.00
2018,05,31,17,02,17.00
2018,05,31,17,03,17.10
2018,05,31,17,04,17.10
2018,05,31,17,05,17.10
2018,05,31,17,06,17.10
2018,05,31,17,07,17.00
2018,05,31,17,08,17.00
2018,05,31,17,09,16.90
2018,05,31,17,10,16.80
2018,05,31,17,11,16.70
2018,05,31,17,12,16.70
2018,05,31,17,13,16.60
2018,05,31,17,14,16.50
2018,05,31,17,15,16.40
2018,05,31,17,16,16.30
2018,05,31,17,17,16.30
2018,05,31,17,18,16.20
2018,05,31,17,19,16.10
2018,05,31,17,20,16.00
2018,05,31,17,21,16.00
2018,05,31,17,22,16.00
2018,05,31,17,23,16.00
2018,05,31,17,24,16.00
2018,05,31,17,25,16.00
2018,05,31,17,26,16.10
2018,05,31,17,27,16.10
2018,05,31,17,28,16.20
2018,05,31,17,29,16.30
2018,05,31,17,30,16.30
2018,05,31,17,31,16.30
2018,05,31,17,32,16.30
2018,05,31,17,33,16.30
2018,05,31,17,34,16.30
2018,05,31,17,35,16.40
2018,05,31,17,36,16.40
2018,05,31,17,37,16.50
2018,05,31,17,38,16.50
2018,05,31,17,39,16.60
2018,05,31,17,40,16.60
2018,05,31,17,41,16.70
2018,05,31,17,42,16.80
2018,05,31,17,43,16.80
2018,05,31,17,44,16.80
2018,05,31,17,45,16.80
2018,05,31,17,46,16.80
2018,05,31,17,47,16.90
2018,05,31,17,48,16.90
2018,05,31,17,49,16.90
2018,05,31,17,50,16.90
2018,05,31,17,51,16.90
2018,05,31,17,52,16.90
2018,05,31,17,53,16.90
2018,05,31,17,54,16.90
2018,05,31,17,55,16.90
2018,05,31,17,56,16.80
2018,05,31,17,57,16.80
2018,05,31,17,58,16.80
2018,05,31,17,59,16.60
2018,05,31,18,00,16.50
2018,05,31,18,01,16.50
2018,05,31,18,02,16.40
2018,05,31,18,03,16.30
2018,05,31,18,04,16.30
2018,05,31,18,05,16.20
2018,05,31,18,06,16.20
2018,05,31,18,07,16.20
2018,05,31,18,08,16.20
2018,05,31,18,09,16.10
2018,05,31,18,10,16.10
2018,05,31,18,11,16.10
2018,05,31,18,12,16.00
2018,05,31,18,13,16.00
2018,05,31,18,14,16.00
2018,05,31,18,15,15.90
2018,05,31,18,16,15.90
2018,05,31,18,17,15.90
2018,05,31,18,18,15.90
2018,05,31,18,19,15.80
2018,05,31,18,20,15.80
2018,05,31,18,21,15.80
2018,05,31,18,22,15.80
2018,05,31,18,23,15.70
2018,05,31,18,24,15.70
2018,05,31,18,25,15.70
2018,05,31,18,26,15.70
2018,05,31,18,27,15.70
2018,05,31,18,28,15.70
2018,05,31,18,29,15.70
2018,05,31,18,30,15.80
2018,05,31,18,31,15.80
2018,05,31,18,32,16.00
2018,05,31,18,33,16.10
2018,05,31,18,34,16.30
2018,05,31,18,35,16.50
2018,05,31,18,36,16.60
2018,05,31,18,37,16.60
2018,05,31,18,38,16.60
2018,05,31,18,39,16.60
2018,05,31,18,40,16.60
2018,05,31,18,41,16.60
2018,05,31,18,42,16.60
2018,05,31,18,43,16.60
2018,05,31,18,44,16.60
2018,05,31,18,45,16.70
2018,05,31,18,46,16.70
2018,05,31,18,47,16.80
2018,05,31,18,48,16.90
2018,05,31,18,49,16.90
2018,05,31,18,50,16.90
2018,05,31,18,51,16.90
2018,05,31,18,52,17.00
2018,05,31,18,53,17.00
2018,05,31,18,54,16.90
2018,05,31,18,55,16.90
2018,05,31,18,56,16.90
2018,05,31,18,57,16.90
2018,05,31,18,58,16.90
2018,05,31,18,59,16.90
2018,05,31,19,00,17.00
2018,05,31,19,01,17.00
2018,05,31,19,02,17.00
2018,05,31,19,03,17.10
2018,05,31,19,04,17.20
2018,05,31,19,05,17.30
2018,05,31,19,06,17.50
2018,05,31,19,07,17.60
2018,05,31,19,08,17.60
2018,05,31,19,09,17.70
2018,05,31,19,10,17.70
2018,05,31,19,11,17.70
2018,05,31,19,12,17.60
2018,05,31,19,13,17.60
2018,05,31,19,14,17.50
2018,05,31,19,15,17.50
2018,05,31,19,16,17.50
2018,05,31,19,17,17.50
2018,05,31,19,18,17.50
2018,05,31,19,19,17.40
2018,05,31,19,20,17.40
2018,05,31,19,21,17.30
2018,05,31,19,22,17.30
2018,05,31,19,23,17.30
2018,05,31,19,24,17.20
2018,05,31,19,25,17.20
2018,05,31,19,26,17.20
2018,05,31,19,27,17.20
2018,05,31,19,28,17.20
2018,05,31,19,29,17.20
2018,05,31,19,30,17.20
2018,05,31,19,31,17.20
2018,05,31,19,32,17.20
2018,05,31,19,33,17.20
2018,05,31,19,34,17.20
2018,05,31,19,35,17.20
